Terug naar catalogus

STARLINK-4535

ActiefCommunicatieVLEO
NORAD 53392·PAYLOAD·🇺🇸 United States

Gelanceerd Aug 10, 2022 vanaf Cape Canaveral Space Force Station

Loading…

Volgende Passages (komende 24 uur)

TLE

VersSource: CelesTrak SupGP

Epoch: Sep 15, 2026, 02:37 UTC

1 53392C 22097E   26258.10951389  .00038512  00000+0  12386-2 0  2589
2 53392  53.1591 344.4568 0001387 102.9568 179.1510 15.31678465    13

Volg STARLINK-4535 in realtime met AllMySat

Download on the App Store